AD5L Weather Reports


Display with metric or nautical units.
time (UTC)temp
F
wind
direction
speed
MPH
gust
MPH
rain 1hr
in
rain 24hr
in
rain mn
in
humidity
%
barometer
mb
20260504034349 63 155 0.0 0.0 0.00 0.00 0.00 71 1017.7
20260504033328 63 155 0.0 0.0 0.00 0.00 0.00 70 1017.7
20260504032339 64 155 0.0 0.0 0.00 0.00 0.00 71 1017.5
20260504031330 65 155 0.0 0.0 0.00 0.00 0.00 65 1017.7
20260504030321 66 155 0.0 0.0 0.00 0.00 0.00 66 1017.7
20260504025334 67 155 0.0 2.0 0.00 0.00 0.00 62 1017.7
20260504024326 67 156 0.0 2.0 0.00 0.00 0.00 62 1017.6
20260504023336 67 143 0.0 1.0 0.00 0.00 0.00 61 1017.6
20260504022327 67 155 0.0 2.0 0.00 0.00 0.00 60 1017.4
20260504021337 68 171 0.0 1.0 0.00 0.00 0.00 59 1017.3
20260504020328 69 165 0.0 1.0 0.00 0.00 0.00 57 1017.4
20260504015339 69 151 0.0 2.0 0.00 0.00 0.00 55 1017.2
20260504014330 70 143 1.0 3.0 0.00 0.00 0.00 54 1017.0
20260504013341 71 143 1.0 3.0 0.00 0.00 0.00 54 1017.0
20260504012332 71 112 1.0 3.0 0.00 0.00 0.00 53 1016.9
20260504011343 72 177 1.0 5.0 0.00 0.00 0.00 52 1017.0
20260504010335 73 135 1.0 4.0 0.00 0.00 0.00 51 1017.0
20260504005341 73 144 2.0 6.0 0.00 0.00 0.00 50 1017.0
20260504004349 74 187 3.0 7.0 0.00 0.00 0.00 48 1017.0
20260504003332 75 120 2.0 9.0 0.00 0.00 0.00 47 1017.0
20260504002322 75 187 2.0 8.0 0.00 0.00 0.00 46 1017.0
20260504001333 75 100 4.0 9.0 0.00 0.00 0.00 46 1017.0
20260504000323 76 150 3.0 8.0 0.00 0.00 0.00 46 1017.3
20260503235334 76 136 3.0 8.0 0.00 0.00 0.00 45 1017.4
20260503234325 76 145 3.0 7.0 0.00 0.00 0.00 43 1017.3
20260503233336 76 170 4.0 8.0 0.00 0.00 0.00 42 1017.5
20260503232329 77 113 4.0 9.0 0.00 0.00 0.00 42 1017.5
20260503231339 78 167 4.0 11.0 0.00 0.00 0.00 40 1017.4
20260503230329 79 230 4.0 12.0 0.00 0.00 0.00 39 1017.4
20260503225340 79 113 3.0 10.0 0.00 0.00 0.00 41 1017.4
20260503224332 79 134 4.0 12.0 0.00 0.00 0.00 39 1017.7
20260503223324 79 117 4.0 13.0 0.00 0.00 0.00 40 1017.9
20260503222331 80 190 4.0 11.0 0.00 0.00 0.00 40 1017.9
20260503221343 80 208 3.0 12.0 0.00 0.00 0.00 39 1018.0
20260503220334 80 175 3.0 11.0 0.00 0.00 0.00 39 1018.1
20260503215344 80 134 4.0 12.0 0.00 0.00 0.00 40 1018.2
20260503214335 80 148 3.0 10.0 0.00 0.00 0.00 41 1018.4
20260503213346 79 181 3.0 11.0 0.00 0.00 0.00 40 1018.6
20260503212327 80 187 5.0 13.0 0.00 0.00 0.00 39 1018.9
20260503211348 80 169 3.0 13.0 0.00 0.00 0.00 40 1018.8
20260503210330 81 158 4.0 12.0 0.00 0.00 0.00 39 1019.3
20260503205321 81 195 3.0 12.0 0.00 0.00 0.00 40 1019.4
20260503204332 80 118 5.0 11.0 0.00 0.00 0.00 37 1019.4
20260503203324 81 182 2.0 12.0 0.00 0.00 0.00 37 1019.6
20260503202332 81 123 4.0 12.0 0.00 0.00 0.00 38 1019.8
20260503201322 80 153 4.0 11.0 0.00 0.00 0.00 39 1020.1
20260503200334 80 131 5.0 12.0 0.00 0.00 0.00 36 1020.3
20260503195325 80 146 3.0 10.0 0.00 0.00 0.00 34 1020.4
20260503194336 80 80 4.0 13.0 0.00 0.00 0.00 38 1020.6
20260503193326 80 113 5.0 12.0 0.00 0.00 0.00 38 1020.6
20260503192336 80 150 7.0 13.0 0.00 0.00 0.00 39 1020.8
20260503191328 80 217 4.0 12.0 0.00 0.00 0.00 38 1020.8
20260503190340 79 84 3.0 12.0 0.00 0.00 0.00 39 1020.9
20260503185347 79 111 3.0 12.0 0.00 0.00 0.00 40 1021.0
20260503184339 79 146 6.0 12.0 0.00 0.00 0.00 39 1021.3
20260503183349 80 227 4.0 10.0 0.00 0.00 0.00 40 1021.3
20260503182340 79 94 5.0 16.0 0.00 0.00 0.00 36 1021.5
20260503181351 79 158 5.0 14.0 0.00 0.00 0.00 42 1021.6
20260503180333 79 127 3.0 10.0 0.00 0.00 0.00 41 1021.9
20260503175324 79 124 3.0 10.0 0.00 0.00 0.00 41 1022.0
20260503174335 78 122 5.0 13.0 0.00 0.00 0.00 40 1022.2
20260503173327 79 158 4.0 8.0 0.00 0.00 0.00 38 1022.4
20260503172339 79 143 6.0 9.0 0.00 0.00 0.00 39 1022.5
20260503171325 79 158 2.0 10.0 0.00 0.00 0.00 45 1022.6
20260503170337 78 231 3.0 9.0 0.00 0.00 0.00 41 1022.9
20260503150350 72 259 2.0 6.0 0.00 0.00 0.00 59 1023.4
20260503131340 60 153 0.0 0.0 0.00 0.00 0.00 86 1023.0
20260503130330 59 153 0.0 0.0 0.00 0.00 0.00 86 1023.0
20260503110322 49 153 0.0 0.0 0.00 0.00 0.00 95 1021.7
20260503090333 50 153 0.0 0.0 0.00 0.00 0.00 95 1021.3
20260503081347 51 153 0.0 0.0 0.00 0.00 0.00 94 1021.3
20260503080329 51 153 0.0 0.0 0.00 0.00 0.00 94 1021.3
20260503072334 52 153 0.0 0.0 0.00 0.00 0.00 93 1021.6
20260503071325 52 153 0.0 0.0 0.00 0.00 0.00 93 1021.6
20260503070328 52 153 0.0 0.0 0.00 0.00 0.00 93 1021.7
20260503060332 53 153 0.0 0.0 0.00 0.00 0.00 92 1021.9
20260503054331 54 153 0.0 0.0 0.00 0.00 0.00 91 1021.9
20260503053342 54 153 0.0 0.0 0.00 0.00 0.00 91 1022.0
20260503052334 55 153 0.0 0.0 0.00 0.00 0.00 91 1022.1
20260503051345 55 153 0.0 0.0 0.00 0.00 0.00 91 1022.0
20260503050336 54 153 0.0 0.0 0.00 0.00 0.00 90 1022.0
20260503045347 55 153 0.0 0.0 0.00 0.00 0.00 90 1022.0
20260503044330 55 153 0.0 0.0 0.00 0.00 0.00 89 1021.9
20260503043322 56 153 0.0 0.0 0.00 0.00 0.00 89 1021.9
20260503042333 56 153 0.0 0.0 0.00 0.00 0.00 89 1021.9
20260503041325 56 153 0.0 0.0 0.00 0.00 0.00 88 1021.8
20260503040336 57 153 0.0 0.0 0.00 0.00 0.00 88 1021.8
20260503035327 57 153 0.0 0.0 0.00 0.00 0.00 86 1021.9